Flag Weather past 2 weeks in Kortrijk, Belgium

Now
54 °F

Passing clouds.


Feels Like: 52 °F
Forecast: 41 / 50 °F
Wind: 6 mph from West

Location: Lille Airport

Current Time: Nov 23, 2014 at 7:47:11 PM

Latest Report: Nov 23, 2014 at 7:00 PM


Visibility: N/A

Pressure: 29.95 "Hg

Humidity: 94%

Dew point: 52 °F

Location of KortrijkLocation

Historic Weather in Kortrijk — Graph

°F

Kortrijk temperature yesterday

Maximum temperature yesterday: 55 °F (at 1:00 PM)
Minimum temperature yesterday: 43 °F (at 12:00 AM)
Average temperature yesterday: 48 °F

Past Weeks' High & Low Weather Summary

 TemperatureHumidityPressure
High59 °F (Nov 11, 2:00 PM)100% (Nov 10, 1:30 AM)30.27 "Hg (Nov 10, 1:30 AM)
Low37 °F (Nov 21, 7:30 AM)67% (Nov 12, 2:00 PM)29.47 "Hg (Nov 11, 8:30 PM)
Average48 °F92%29.79 "Hg
* Reported Nov 8 7:00 PM — Nov 23 7:00 PM, Kortrijk, Weather by CustomWeather, © 2014

Note: Actual official high and low records may vary slightly from our data, if they occured in-between our weather recording intervals... More about our weather records

Advertising

Kortrijk weather history for previous 24 hours

 ConditionsComfort  
Time TempWeatherWind HumidityBarometerVisibility
7:00 PM
Nov 23
54 °FPassing clouds.6 mph94%29.95 "HgN/A
6:30 PM54 °FPassing clouds.3 mph94%29.95 "HgN/A
6:00 PM55 °FPassing clouds.3 mph88%29.95 "HgN/A
5:30 PM55 °FPartly cloudy.5 mph88%29.95 "HgN/A
5:00 PM55 °FClear.6 mph88%29.95 "Hg10 mi
4:30 PM55 °FSunny.8 mph88%29.95 "Hg10 mi
4:00 PM55 °FSunny.5 mph88%29.92 "Hg10 mi
3:30 PM55 °FSunny.6 mph88%29.92 "Hg10 mi
3:00 PM55 °FSunny.6 mph88%29.92 "Hg10 mi
2:30 PM57 °FSunny.9 mph82%29.95 "Hg10 mi
2:00 PM57 °FSunny.10 mph82%29.95 "Hg10 mi
1:30 PM57 °FSunny.12 mph82%29.95 "Hg10 mi
1:00 PM55 °FSunny.9 mph88%29.98 "Hg10 mi
12:30 PM55 °FSunny.10 mph88%29.98 "Hg10 mi
12:00 PM54 °FSunny.9 mph94%29.98 "Hg10 mi
11:30 AM54 °FSunny.9 mph88%29.98 "Hg10 mi
11:00 AM52 °FSunny.7 mph94%30.01 "Hg10 mi
10:30 AM52 °FSunny.7 mph94%30.01 "Hg10 mi
10:00 AM50 °FSunny.7 mph94%30.01 "Hg10 mi
9:30 AM48 °FClear.8 mph100%30.01 "Hg6 mi
9:00 AM48 °FClear.7 mph94%30.01 "Hg5 mi
8:30 AM48 °FClear.6 mph94%30.01 "Hg5 mi
8:00 AM48 °FClear.6 mph94%30.01 "Hg4 mi
7:00 AM48 °FClear.8 mph100%30.01 "Hg5 mi
6:30 AM48 °FClear.8 mph100%29.98 "Hg4 mi
6:00 AM48 °FClear.8 mph94%29.98 "Hg4 mi
5:30 AM48 °FClear.6 mph100%30.01 "Hg4 mi
5:00 AM48 °FClear.7 mph100%29.98 "Hg4 mi
4:00 AM48 °FFog.3 mph94%30.01 "Hg1 mi
3:30 AM50 °FFog.3 mph94%30.01 "Hg2 mi
3:00 AM50 °FFog.3 mph94%30.01 "Hg3 mi
2:30 AM50 °FFog.3 mph100%30.04 "Hg3 mi
2:00 AM50 °FClear.5 mph100%30.04 "Hg4 mi
1:30 AM50 °FClear.6 mph100%30.04 "Hg4 mi
1:00 AM50 °FClear.6 mph100%30.01 "Hg4 mi
12:30 AM50 °FLight rain. Clear.5 mph100%30.04 "Hg4 mi
12:00 AM50 °FMostly cloudy.7 mph100%30.04 "Hg4 mi
11:00 PM
Nov 22
50 °FClear.3 mph100%30.04 "Hg4 mi
10:30 PM50 °FClear.3 mph94%30.04 "Hg4 mi
10:00 PM50 °FClear.3 mph100%30.04 "Hg4 mi
9:30 PM52 °FClear.3 mph94%30.04 "Hg4 mi
9:00 PM52 °FClear.5 mph94%30.01 "Hg4 mi
8:30 PM52 °FClear.6 mph94%30.01 "Hg4 mi
8:00 PM50 °FFog.3 mph100%30.01 "Hg3 mi
7:30 PM50 °FFog.3 mph100%30.01 "Hg2 mi
7:00 PM50 °FFog.3 mph94%30.01 "Hg2 mi
Weather by CustomWeather, © 2014

See weather overviewHow to use our weather pages